When you browse on this site, cookies collect data to enhance your experience and personalize the content and advertising you see.
Visit our Privacy Policy to learn more. By continuing to use the site, you agree to this use of cookies and data.
  • In Portugal
  • List of Countries
  • For 7 days
  • Water Temperature
  • Weather Map
  • Weather Widgets
  • user-avatar
    Login

    Hourly Weather Kyrdzhali

    Today, 1 April, Wednesday

    Time Temperature Precipitation Wind Pressure Humidity
    00:00 +1°C° 0.2 mm 3 mps 727 mmHg 87%
    01:00 +1°C° 0.2 mm 3 mps 727 mmHg 87%
    02:00 0°C° 0.2 mm 3 mps 727 mmHg 86%
    03:00 0°C° 0.1 mm 3 mps 727 mmHg 86%
    04:00 -1°C° 0.1 mm 3 mps 727 mmHg 86%
    05:00 -1°C° 0.1 mm 3 mps 727 mmHg 86%
    06:00 -1°C° 0.1 mm 3 mps 727 mmHg 85%
    07:00 -1°C° 0.1 mm 3 mps 727 mmHg 85%
    08:00 -2°C° 0.1 mm 4 mps 727 mmHg 84%
    09:00 -1°C° 0.1 mm 3 mps 727 mmHg 85%
    10:00 0°C° 0.1 mm 3 mps 727 mmHg 85%
    11:00 +1°C° 0.1 mm 3 mps 727 mmHg 85%
    12:00 +1°C° 0.1 mm 3 mps 727 mmHg 87%
    13:00 +1°C° 0.1 mm 3 mps 727 mmHg 89%
    14:00 +2°C° 0.1 mm 3 mps 726 mmHg 92%
    15:00 +2°C° 0.3 mm 3 mps 726 mmHg 93%
    16:00 +2°C° 0.3 mm 3 mps 725 mmHg 94%
    17:00 +3°C° 0.3 mm 2 mps 725 mmHg 95%
    18:00 +2°C° 0.3 mm 3 mps 725 mmHg 96%
    19:00 +1°C° 0.3 mm 3 mps 725 mmHg 96%
    20:00 +1°C° 0.3 mm 3 mps 725 mmHg 96%
    21:00 +1°C° 0.6 mm 3 mps 725 mmHg 97%
    22:00 +1°C° 0.6 mm 3 mps 724 mmHg 97%
    23:00 +1°C° 0.6 mm 3 mps 724 mmHg 97%

    Tomorrow, 2 April, Thursday

    Time Temperature Precipitation Wind Pressure Humidity
    00:00 -1°C° 1.4 mm 4 mps 724 mmHg 97%
    01:00 -1°C° 1.4 mm 4 mps 724 mmHg 98%
    02:00 -1°C° 1.4 mm 4 mps 723 mmHg 98%
    03:00 -2°C° 1.5 mm 4 mps 723 mmHg 98%
    04:00 -2°C° 1.5 mm 4 mps 723 mmHg 97%
    05:00 -2°C° 1.5 mm 5 mps 723 mmHg 97%
    06:00 -2°C° 1.2 mm 5 mps 723 mmHg 97%
    07:00 -2°C° 1.2 mm 5 mps 723 mmHg 97%
    08:00 -1°C° 1.2 mm 5 mps 723 mmHg 97%
    09:00 -1°C° 0.6 mm 5 mps 723 mmHg 97%
    10:00 -1°C° 0.6 mm 5 mps 723 mmHg 98%
    11:00 -1°C° 0.6 mm 5 mps 723 mmHg 98%
    12:00 0°C° 0.5 mm 5 mps 723 mmHg 98%
    13:00 0°C° 0.5 mm 4 mps 723 mmHg 98%
    14:00 0°C° 0.5 mm 4 mps 724 mmHg 98%
    15:00 0°C° 0.2 mm 4 mps 724 mmHg 97%
    16:00 +1°C° 0.2 mm 3 mps 724 mmHg 97%
    17:00 +2°C° 0.2 mm 3 mps 724 mmHg 97%
    18:00 +1°C° 0 mm 3 mps 724 mmHg 97%
    19:00 +2°C° 0 mm 2 mps 724 mmHg 98%
    20:00 +2°C° 0 mm 2 mps 725 mmHg 98%
    21:00 +2°C° 0 mm 2 mps 725 mmHg 97%
    22:00 +2°C° 0 mm 1 mps 725 mmHg 96%
    23:00 +2°C° 0 mm 1 mps 726 mmHg 94%

    Day after tomorrow, 3 April, Friday

    Time Temperature Precipitation Wind Pressure Humidity
    00:00 +2°C° 0 mm 1 mps 725 mmHg 92%
    01:00 +2°C° 0 mm 1 mps 725 mmHg 91%
    02:00 +1°C° 0 mm 1 mps 725 mmHg 89%
    03:00 +1°C° 0 mm 1 mps 725 mmHg 88%
    04:00 +1°C° 0 mm 1 mps 725 mmHg 88%
    05:00 +1°C° 0 mm 1 mps 725 mmHg 87%
    06:00 +2°C° 0 mm 1 mps 725 mmHg 90%
    07:00 +3°C° 0 mm 1 mps 726 mmHg 92%
    08:00 +4°C° 0 mm 1 mps 726 mmHg 94%
    09:00 +5°C° 0 mm 1 mps 726 mmHg 93%
    10:00 +6°C° 0 mm 1 mps 726 mmHg 92%
    11:00 +7°C° 0 mm 1 mps 726 mmHg 92%
    12:00 +7°C° 0 mm 2 mps 726 mmHg 91%
    13:00 +7°C° 0 mm 2 mps 726 mmHg 90%
    14:00 +8°C° 0 mm 2 mps 726 mmHg 89%
    15:00 +8°C° 0 mm 2 mps 726 mmHg 89%
    16:00 +8°C° 0 mm 2 mps 726 mmHg 89%
    17:00 +8°C° 0 mm 2 mps 726 mmHg 88%
    18:00 +8°C° 0 mm 1 mps 726 mmHg 89%
    19:00 +7°C° 0 mm 1 mps 726 mmHg 91%
    20:00 +5°C° 0 mm 0 mps 726 mmHg 92%
    21:00 +5°C° 0 mm 0 mps 726 mmHg 92%
    22:00 +4°C° 0 mm 0 mps 727 mmHg 91%
    23:00 +4°C° 0 mm 0 mps 727 mmHg 91%

    4 April, Saturday

    Time Temperature Precipitation Wind Pressure Humidity
    00:00 +4°C° 0 mm 0 mps 727 mmHg 90%
    01:00 +4°C° 0 mm 0 mps 727 mmHg 90%
    02:00 +3°C° 0 mm 0 mps 727 mmHg 89%
    03:00 +4°C° 0 mm 1 mps 727 mmHg 90%
    04:00 +4°C° 0 mm 1 mps 727 mmHg 90%
    05:00 +4°C° 0 mm 1 mps 727 mmHg 90%
    06:00 +5°C° 0 mm 1 mps 727 mmHg 90%
    07:00 +6°C° 0 mm 1 mps 728 mmHg 90%
    08:00 +7°C° 0 mm 1 mps 728 mmHg 89%
    09:00 +7°C° 0 mm 2 mps 728 mmHg 85%
    10:00 +9°C° 0 mm 2 mps 729 mmHg 80%
    11:00 +10°C° 0 mm 2 mps 729 mmHg 76%
    12:00 +12°C° 0 mm 2 mps 729 mmHg 73%
    13:00 +11°C° 0 mm 3 mps 729 mmHg 70%
    14:00 +12°C° 0 mm 3 mps 729 mmHg 67%
    15:00 +12°C° 0 mm 3 mps 729 mmHg 68%
    16:00 +12°C° 0 mm 3 mps 729 mmHg 69%
    17:00 +12°C° 0 mm 3 mps 729 mmHg 70%
    18:00 +10°C° 0 mm 3 mps 729 mmHg 75%
    19:00 +9°C° 0 mm 2 mps 729 mmHg 80%
    20:00 +7°C° 0 mm 2 mps 729 mmHg 85%
    21:00 +7°C° 0 mm 2 mps 730 mmHg 86%
    22:00 +7°C° 0 mm 2 mps 730 mmHg 87%
    23:00 +6°C° 0 mm 2 mps 730 mmHg 88%

    5 April, Sunday

    Time Temperature Precipitation Wind Pressure Humidity
    00:00 +6°C° 0 mm 2 mps 730 mmHg 87%
    01:00 +4°C° 0 mm 3 mps 730 mmHg 86%
    02:00 +3°C° 0 mm 3 mps 730 mmHg 85%
    03:00 +3°C° 0 mm 3 mps 730 mmHg 83%
    04:00 +3°C° 0 mm 3 mps 730 mmHg 81%
    05:00 +2°C° 0 mm 3 mps 730 mmHg 79%
    06:00 +3°C° 0 mm 4 mps 730 mmHg 76%
    07:00 +3°C° 0 mm 5 mps 730 mmHg 72%
    08:00 +5°C° 0 mm 5 mps 730 mmHg 69%
    09:00 +5°C° 0 mm 7 mps 730 mmHg 68%
    10:00 +6°C° 0 mm 8 mps 730 mmHg 67%
    11:00 +7°C° 0 mm 9 mps 730 mmHg 66%
    12:00 +8°C° 0 mm 10 mps 730 mmHg 64%
    13:00 +8°C° 0 mm 11 mps 729 mmHg 63%
    14:00 +9°C° 0 mm 12 mps 729 mmHg 62%
    15:00 +8°C° 0 mm 11 mps 729 mmHg 63%
    16:00 +7°C° 0 mm 10 mps 729 mmHg 64%
    17:00 +7°C° 0 mm 9 mps 729 mmHg 65%
    18:00 +6°C° 0 mm 9 mps 729 mmHg 68%
    19:00 +6°C° 0 mm 9 mps 729 mmHg 71%
    20:00 +5°C° 0 mm 9 mps 729 mmHg 74%
    21:00 +3°C° 0 mm 9 mps 730 mmHg 73%
    22:00 +3°C° 0 mm 9 mps 730 mmHg 72%
    23:00 +3°C° 0 mm 9 mps 730 mmHg 71%

    6 April, Monday

    Time Temperature Precipitation Wind Pressure Humidity
    00:00 +2°C° 0 mm 9 mps 730 mmHg 72%
    01:00 +2°C° 0 mm 9 mps 730 mmHg 73%
    02:00 +2°C° 0 mm 9 mps 730 mmHg 74%
    03:00 +2°C° 0 mm 10 mps 730 mmHg 76%
    04:00 +2°C° 0 mm 10 mps 730 mmHg 79%
    05:00 +2°C° 0 mm 11 mps 730 mmHg 81%
    06:00 +2°C° 0.1 mm 11 mps 730 mmHg 80%
    07:00 +1°C° 0.1 mm 11 mps 731 mmHg 78%
    08:00 +1°C° 0.1 mm 11 mps 731 mmHg 77%
    09:00 +2°C° 0 mm 12 mps 732 mmHg 75%
    10:00 +2°C° 0 mm 12 mps 732 mmHg 73%
    11:00 +3°C° 0 mm 12 mps 732 mmHg 71%
    12:00 +3°C° 0 mm 12 mps 732 mmHg 69%
    13:00 +4°C° 0 mm 13 mps 732 mmHg 66%
    14:00 +5°C° 0 mm 13 mps 733 mmHg 63%
    15:00 +4°C° 0.1 mm 12 mps 732 mmHg 67%
    16:00 +3°C° 0.1 mm 12 mps 732 mmHg 72%
    17:00 +2°C° 0.1 mm 11 mps 732 mmHg 76%
    18:00 +1°C° 0.1 mm 11 mps 732 mmHg 76%
    19:00 0°C° 0.1 mm 10 mps 733 mmHg 77%
    20:00 0°C° 0.1 mm 10 mps 733 mmHg 78%
    21:00 0°C° 0 mm 10 mps 734 mmHg 77%
    22:00 -1°C° 0 mm 9 mps 734 mmHg 76%
    23:00 -1°C° 0 mm 9 mps 734 mmHg 75%
    Show more